sat.trackr.live / text

‹ back to catalog

LEGION 4

NORAD 60453 · 2024-146B

PAYLOAD ACTIVE UNKNOWN

§ Identity

Operator
Country
US
Launch date
2024-08-15
Launch site
AFETR
Launch vehicle
Mass (kg)
RCS (m²)

Purposes: earth_obs

External: N2YO · Heavens-Above · Gunter

§ Orbital elements

Epoch: 2026-09-19T21:28:54.044544Z

Period
94.98 min
Inclination
45.0033°
Eccentricity
0.0008748
Mean motion
15.16078619 rev/d
Perigee alt
511.7 km
Apogee alt
523.7 km
Semi-major
6,895.8 km
B*
1.1154e-4
RAAN
334.6213°
Arg perigee
131.8767°
Mean anomaly
228.2859°
Rev number
11,524

§ Raw data

LEGION 41 60453U 24146B   26262.89506996  .00001919  00000+0  11154-3 0  99992 60453  45.0033 334.6213 0008748 131.8767 228.2859 15.16078619115240

JSON: /api/v1/satellites/60453 · /tle

For live sub-satellite position, see the globe view (requires WebGL).

§ Visibility from observer

Set your observer location to see the next 7 days of passes ≥ 10°. The values pass through the URL so the page stays shareable.

No JS? Fill the form by hand. The geolocation button needs JavaScript.